Location: *
(58.4167°N, 22.5000°E)
Time: 12:18:12
(UTC+00:00)

Cosmos 2297 Rocket - Pass Details

Date: 22 September 2019
Orbit: 841 x 842 km, 71.0° (Epoch: 17 October)

Event Time Altitude Azimuth Distance (km) Brightness Sun altitude
Rises 18:15:30 0° 199° (SSW) 3,390 5.3 -14.1°
Reaches altitude 10° 18:17:58 10° 196° (SSW) 2,459 4.5 -14.4°
Maximum altitude 18:23:29 58° 118° (ESE) 983 2.2 -15.1°
Drops below altitude 10° 18:29:02 10° 41° (NE) 2,473 4.5 -15.7°
Sets 18:31:31 0° 38° (NE) 3,412 5.3 -16.0°
